Hourly Data Report for July 18, 2021

BONAVISTA
NEWFOUNDLAND
Current Station Operator: ECCC - MSC

48°40'02.000" N
53°06'51.000" W
25.60 m
8400601
71178
AVA

Download Data

Hourly Data (July 2021)
Hourly Data Report for July 18, 2021
TIME
LST
Temp Definition
°C
Dew Point Definition
°C
Rel Hum Definition
%
Precip. Amount Definition
mm

Wind Dir Definition
10's deg

Wind Spd Definition
km/h
Visibility Definition
km
Stn Press Definition
kPa
Hmdx Definition


Wind Chill Definition


Weather Definition


00:30 14.5 13.6 95 0.0 21 12   101.06     LegendNANA
01:30 15.6 14.6 94 0.0 19 13   101.05     LegendNANA
02:30 15.6 14.3 92 0.0 24 15   101.09     LegendNANA
03:30 15.6 12.4 81 0.0 23 28   101.07     LegendNANA
04:30 15.8 11.4 75 0.0 23 23   101.08     LegendNANA
05:30 16.3 11.5 73 0.0 23 26   101.07     LegendNANA
06:30 16.8 11.6 71 0.0 23 26   101.09     LegendNANA
07:30 17.4 11.9 70 0.0 24 21   101.14     LegendNANA
08:30 19.0 12.8 67 0.0 23 25   101.14     LegendNANA
09:30 19.9 13.0 64 0.0 24 18   101.13     LegendNANA
10:30 21.4 13.3 60 0.0 25 18   101.12     LegendNANA
11:30 22.3 13.6 58 0.0 26 15   101.11 25   LegendNANA
12:30 22.9 12.5 52 0.0 26 13   101.07 25   LegendNANA
13:30 23.2 13.0 53 0.0 32 8   101.04 26   LegendNANA
14:30 20.4 12.9 62 0.0 5 17   101.02     LegendNANA
15:30 19.5 13.3 67 0.0 7 18   101.01     LegendNANA
16:30 19.5 13.0 66 0.0 5 12   101.01     LegendNANA
17:30 22.4 13.2 56 0.0 12 15   101.03 25   LegendNANA
18:30 19.6 12.6 64 0.0 16 24   101.08     LegendNANA
19:30 17.8 12.5 71 0.0 8 18   101.18     LegendNANA
20:30 15.4 12.2 82 0.0 14 17   101.26     LegendNANA
21:30 15.9 12.0 78 0.0 12 8   101.30     LegendNANA
22:30 15.5 12.0 80 0.0 16 17   101.31     LegendNANA
23:30 15.2 12.1 81 0.0 16 17   101.32     LegendNANA

Notes on Data Quality.

Legend

  • E = Estimated
  • M = Missing
  • NA = Not Available*
  • [empty] = Indicates an unobserved value
Date modified: